Location: Unspecified
(0.0000°N, 0.0000°E)
Time: 06:55:09
(UTC+00:00)

LilacSat-2 - Visible Passes

Search period start: 28 May 2023 00:00
Search period end: 07 June 2023 00:00
Orbit: 499 x 516 km, 97.5° (Epoch: 27 May)

Date Brightness Start Highest point End Pass type
(mag) Time Alt. Az. Time Alt. Az. Time Alt. Az.
29 May ? 05:22:42 10° NNE 05:26:15 44° E 05:29:47 10° S visible
30 May ? 05:05:55 10° NE 05:08:52 23° E 05:11:50 10° SSE visible
30 May ? 18:31:59 10° SW 18:33:47 13° WSW 18:35:37 10° WNW visible
31 May ? 04:49:58 10° ENE 04:51:30 12° ESE 04:53:02 10° SE visible
03 Jun ? 05:29:18 10° NNE 05:32:55 57° E 05:36:33 10° S visible
04 Jun ? 05:12:18 10° NE 05:15:30 28° E 05:18:43 10° SSE visible
04 Jun ? 18:39:44 10° WSW 18:40:24 10° WSW 18:41:06 10° W visible
05 Jun ? 04:55:53 10° ENE 04:58:06 15° ESE 05:00:18 10° SE visible
05 Jun ? 18:20:15 10° SSW 18:23:00 20° WSW 18:25:45 10° NW visible
